This demonstration page uses our WeatherBlox Daily Observations layout. Learn more.

Left ArrowRight Arrow

Hourly Observations for July 5, 2020

Temp ( °F °C ) Dew Point ( °F °C ) Humidity (%) Winds ( mph kmh ) Pressure ( in mb ) Visibility ( mi km ) Precip ( " mm )
12:51 am 00:51 Clear 84 28.9 46 7.8 27 27 W 9 15 29.75 1008 10 16.0934 0 0
1:51 am 01:51 Clear 81 27.2 45 7.2 28 28 NNW 5 7 29.76 1008 10 16.0934 0 0
2:51 am 02:51 Clear 83 28.3 44 6.7 25 25 NW 10 17 29.75 1008 10 16.0934 0 0
3:51 am 03:51 Clear 83 28.3 47 8.3 28 28 NW 9 15 29.75 1007 10 16.0934 0 0
4:51 am 04:51 Clear 82 27.8 47 8.3 29 29 WSW 5 7 29.76 1008 10 16.0934 0 0
5:51 am 05:51 Sunny 76 24.4 45 7.2 33 33 ENE 3 6 29.79 1009 10 16.0934 0 0
6:51 am 06:51 Sunny 81 27.2 46 7.8 29 29 ESE 5 7 29.81 1009 10 16.0934 0 0
7:51 am 07:51 Sunny 87 30.6 47 8.3 25 25 Calm 29.82 1010 10 16.0934 0 0
8:51 am 08:51 Sunny 94 34.4 47 8.3 20 20 W 10 17 29.8 1009 10 16.0934 0 0
9:51 am 09:51 Sunny 98 36.7 47 8.3 17 17 WNW 15 24 29.78 1009 10 16.0934 0 0
10:51 am 10:51 Sunny 101 38.3 46 7.8 15 15 WNW 18 30 29.77 1008 10 16.0934 0 0
11:51 am 11:51 Sunny 103 39.4 45 7.2 14 14 W 17 28 29.75 1007 10 16.0934 0 0
12:51 pm 12:51 Sunny 105 40.6 45 7.2 13 13 W 17 28 29.72 1006 10 16.0934 0 0
1:51 pm 13:51 Sunny 106 41.1 40 4.4 10 10 W 9 15 29.69 1005 10 16.0934 0 0
2:51 pm 14:51 Sunny 108 42.2 40 4.4 10 10 W 21 33 29.65 1004 10 16.0934 0 0
3:51 pm 15:51 Sunny 108 42.2 37 2.8 9 9 NW 15 24 29.64 1004 10 16.0934 0 0
4:51 pm 16:51 Sunny 106 41.1 39 3.9 10 10 NW 14 22 29.62 1003 10 16.0934 0 0
5:51 pm 17:51 Sunny 105 40.6 36 2.2 9 9 WNW 18 30 29.62 1003 10 16.0934 0 0
6:51 pm 18:51 Sunny 101 38.3 38 3.3 11 11 W 18 30 29.63 1004 10 16.0934 0 0
7:51 pm 19:51 Clear 97 36.1 39 3.9 13 13 WNW 16 26 29.64 1004 10 16.0934 0 0
8:51 pm 20:51 Clear 93 33.9 39 3.9 15 15 NW 13 20 29.66 1004 10 16.0934 0 0
9:51 pm 21:51 Clear 93 33.9 38 3.3 14 14 NW 15 24 29.67 1005 10 16.0934 0 0
10:51 pm 22:51 Clear 91 32.8 36 2.2 14 14 NW 14 22 29.68 1005 10 16.0934 0 0
11:51 pm 23:51 Clear 89 31.7 34 1.1 14 14 NW 13 20 29.67 1005 10 16.0934 0 0

Powered by AerisWeather